ALLMENDG2 Weather Reports


time (UTC)temp
C
wind
direction
speed
KPH
gust
KPH
rain 1hr
cm
rain 24hr
cm
rain mn
cm
humidity
%
barometer
mb
20260506123210 18 225 0.0 0.0 0.00 0.00 0.00 59 1003.9
20260506120210 17 225 0.0 0.0 0.00 0.00 0.00 60 1004.2
20260506113217 17 225 0.0 0.0 0.00 0.00 0.00 60 1004.2
20260506110210 16 225 0.0 0.0 0.00 0.00 0.00 65 1004.4
20260506100213 11 315 0.0 0.0 0.00 0.00 0.00 80 1007.1
20260506093211 11 315 0.0 0.0 0.00 0.00 0.00 80 1007.1
20260506090211 11 315 0.0 0.0 0.00 0.00 0.00 80 1007.1
20260506083211 11 315 0.0 0.0 0.00 0.00 0.00 80 1007.1
20260506080212 11 315 0.0 0.0 0.00 0.00 0.00 80 1007.1
20260506073211 11 315 0.0 0.0 0.00 0.00 0.00 80 1007.1
20260506070212 11 315 0.0 0.0 0.00 0.00 0.00 80 1007.1
20260506060210 11 315 0.0 0.0 0.00 0.00 0.00 80 1007.1
20260506050211 11 315 0.0 0.0 0.00 0.00 0.00 80 1007.1
20260506043211 11 315 0.0 0.0 0.00 0.00 0.00 80 1007.1
20260506040211 11 315 0.0 0.0 0.00 0.00 0.00 80 1007.1
20260506033211 11 315 0.0 0.0 0.00 0.00 0.00 80 1007.1
20260506030212 11 315 0.0 0.0 0.00 0.00 0.00 80 1007.1
20260506023211 11 315 0.0 0.0 0.00 0.00 0.00 80 1007.1
20260506020212 11 315 0.0 0.0 0.00 0.00 0.00 80 1007.1
20260506013211 11 315 0.0 0.0 0.00 0.00 0.00 80 1007.1
20260506010212 11 315 0.0 0.0 0.00 0.00 0.00 80 1007.1
20260506003209 11 315 0.0 0.0 0.00 0.00 0.00 80 1007.1
20260506000211 11 315 0.0 0.0 0.00 0.00 0.00 80 1007.1
20260505233209 11 247 0.0 0.0 0.00 0.00 0.00 78 1007.0
20260505230209 12 225 0.0 0.0 0.00 0.00 0.00 78 1007.3
20260505223210 12 247 3.2 0.0 0.00 0.00 0.00 77 1007.4
20260505220209 13 270 11.3 0.0 0.00 0.00 0.00 76 1007.6
20260505213211 13 315 8.0 0.0 0.00 0.00 0.00 75 1007.4
20260505210215 13 247 4.8 0.0 0.00 0.00 0.00 74 1007.1
20260505203209 14 247 4.8 0.0 0.00 0.00 0.00 73 1007.3
20260505200210 15 247 8.0 0.0 0.00 0.00 0.00 70 1006.9
20260505193209 15 202 0.0 0.0 0.00 0.00 0.00 69 1006.2
20260505190215 16 270 0.0 0.0 0.00 0.00 0.00 66 1006.1
20260505183212 17 270 8.0 0.0 0.00 0.00 0.00 62 1005.8
20260505180211 17 202 1.6 0.0 0.00 0.00 0.00 62 1005.6
20260505173210 18 247 0.0 0.0 0.00 0.00 0.00 60 1005.6
20260505170210 18 225 4.8 0.0 0.00 0.00 0.00 59 1005.5
20260505163211 19 270 9.7 0.0 0.00 0.00 0.00 61 1005.3
20260505153210 18 225 3.2 0.0 0.00 0.00 0.00 64 1005.5
20260505150215 20 202 6.4 0.0 0.00 0.00 0.00 57 1006.5
20260505140210 17 157 0.0 0.0 0.00 0.00 0.00 66 1006.2
20260505130210 18 225 6.4 0.0 0.00 0.00 0.00 63 1006.8